• In Netherlands
  • List of Countries
  • For 7 days
  • Water Temperature
  • Satellite Maps
  • Weather Map
  • Weather Widgets
  • user-avatar
    Login

    Hourly Weather Vanadzor

    Today, 26 May, Friday

    Time Temperature Precipitation Wind Pressure Humidity
    00:00 +6°C° 0.1 mm 1 mps 635 mmHg 96%
    01:00 +6°C° 0 mm 1 mps 634 mmHg 96%
    02:00 +5°C° 0 mm 1 mps 634 mmHg 97%
    03:00 +5°C° 0 mm 1 mps 634 mmHg 97%
    04:00 +6°C° 0 mm 1 mps 635 mmHg 94%
    05:00 +8°C° 0 mm 1 mps 635 mmHg 91%
    06:00 +8°C° 0 mm 0 mps 636 mmHg 88%
    07:00 +11°C° 0 mm 1 mps 636 mmHg 78%
    08:00 +13°C° 0 mm 1 mps 637 mmHg 67%
    09:00 +15°C° 0 mm 1 mps 637 mmHg 57%
    10:00 +16°C° 0 mm 2 mps 637 mmHg 53%
    11:00 +17°C° 0 mm 2 mps 637 mmHg 49%
    12:00 +19°C° 0 mm 3 mps 637 mmHg 44%
    13:00 +19°C° 0.1 mm 2 mps 637 mmHg 47%
    14:00 +19°C° 0.1 mm 2 mps 636 mmHg 49%
    15:00 +19°C° 0.1 mm 2 mps 636 mmHg 52%
    16:00 +17°C° 0.5 mm 2 mps 635 mmHg 61%
    17:00 +16°C° 0.5 mm 1 mps 635 mmHg 70%
    18:00 +15°C° 0.5 mm 1 mps 634 mmHg 79%
    19:00 +12°C° 0.3 mm 1 mps 634 mmHg 84%
    20:00 +10°C° 0.3 mm 1 mps 633 mmHg 88%
    21:00 +8°C° 0.3 mm 1 mps 633 mmHg 93%
    22:00 +8°C° 0.1 mm 1 mps 633 mmHg 93%
    23:00 +7°C° 0.1 mm 1 mps 633 mmHg 94%

    Tomorrow, 27 May, Saturday

    Time Temperature Precipitation Wind Pressure Humidity
    00:00 +7°C° 0.1 mm 1 mps 633 mmHg 94%
    01:00 +6°C° 0.1 mm 1 mps 632 mmHg 95%
    02:00 +6°C° 0.1 mm 1 mps 632 mmHg 96%
    03:00 +6°C° 0.1 mm 1 mps 632 mmHg 96%
    04:00 +7°C° 0.1 mm 1 mps 633 mmHg 93%
    05:00 +8°C° 0.1 mm 0 mps 633 mmHg 89%
    06:00 +9°C° 0.1 mm 0 mps 634 mmHg 86%
    07:00 +12°C° 0.4 mm 1 mps 634 mmHg 83%
    08:00 +13°C° 0.4 mm 1 mps 634 mmHg 80%
    09:00 +14°C° 0.4 mm 1 mps 634 mmHg 76%
    10:00 +15°C° 0.2 mm 2 mps 634 mmHg 69%
    11:00 +17°C° 0.2 mm 2 mps 634 mmHg 62%
    12:00 +19°C° 0.2 mm 3 mps 634 mmHg 55%
    13:00 +19°C° 0.6 mm 3 mps 634 mmHg 57%
    14:00 +19°C° 0.6 mm 3 mps 634 mmHg 60%
    15:00 +19°C° 0.6 mm 3 mps 633 mmHg 62%
    16:00 +18°C° 0.9 mm 2 mps 633 mmHg 68%
    17:00 +17°C° 0.9 mm 2 mps 633 mmHg 74%
    18:00 +16°C° 0.9 mm 1 mps 632 mmHg 80%
    19:00 +13°C° 0.5 mm 1 mps 632 mmHg 85%
    20:00 +11°C° 0.5 mm 1 mps 632 mmHg 90%
    21:00 +8°C° 0.5 mm 1 mps 631 mmHg 95%
    22:00 +8°C° 0.1 mm 1 mps 631 mmHg 95%
    23:00 +7°C° 0.1 mm 1 mps 631 mmHg 94%

    Day after tomorrow, 28 May, Sunday

    Time Temperature Precipitation Wind Pressure Humidity
    00:00 +7°C° 0.1 mm 1 mps 631 mmHg 93%
    01:00 +7°C° 0 mm 1 mps 631 mmHg 93%
    02:00 +6°C° 0 mm 1 mps 631 mmHg 93%
    03:00 +6°C° 0 mm 1 mps 632 mmHg 92%
    04:00 +7°C° 0 mm 1 mps 632 mmHg 90%
    05:00 +9°C° 0 mm 1 mps 633 mmHg 87%
    06:00 +10°C° 0 mm 1 mps 634 mmHg 85%
    07:00 +13°C° 0 mm 1 mps 634 mmHg 75%
    08:00 +15°C° 0 mm 1 mps 635 mmHg 65%
    09:00 +17°C° 0 mm 2 mps 636 mmHg 55%
    10:00 +18°C° 0.2 mm 2 mps 636 mmHg 52%
    11:00 +19°C° 0.2 mm 2 mps 636 mmHg 49%
    12:00 +20°C° 0.2 mm 3 mps 636 mmHg 46%
    13:00 +20°C° 0.6 mm 3 mps 635 mmHg 46%
    14:00 +20°C° 0.6 mm 3 mps 635 mmHg 47%
    15:00 +20°C° 0.6 mm 3 mps 635 mmHg 47%
    16:00 +19°C° 1 mm 3 mps 635 mmHg 54%
    17:00 +18°C° 1 mm 3 mps 635 mmHg 62%
    18:00 +17°C° 1 mm 2 mps 634 mmHg 69%
    19:00 +14°C° 0.4 mm 2 mps 634 mmHg 75%
    20:00 +11°C° 0.4 mm 1 mps 634 mmHg 81%
    21:00 +8°C° 0.4 mm 1 mps 634 mmHg 88%
    22:00 +8°C° 0 mm 1 mps 634 mmHg 88%
    23:00 +8°C° 0 mm 1 mps 634 mmHg 89%

    29 May, Monday

    Time Temperature Precipitation Wind Pressure Humidity
    00:00 +7°C° 0 mm 1 mps 634 mmHg 90%
    01:00 +7°C° 0 mm 1 mps 634 mmHg 90%
    02:00 +6°C° 0 mm 1 mps 634 mmHg 91%
    03:00 +6°C° 0 mm 1 mps 634 mmHg 92%
    04:00 +7°C° 0 mm 1 mps 634 mmHg 89%
    05:00 +9°C° 0 mm 1 mps 635 mmHg 86%
    06:00 +10°C° 0 mm 1 mps 636 mmHg 83%
    07:00 +12°C° 0 mm 1 mps 637 mmHg 73%
    08:00 +15°C° 0 mm 1 mps 638 mmHg 64%
    09:00 +18°C° 0 mm 1 mps 638 mmHg 54%
    10:00 +19°C° 0.2 mm 1 mps 638 mmHg 53%
    11:00 +19°C° 0.2 mm 2 mps 638 mmHg 52%
    12:00 +19°C° 0.2 mm 2 mps 638 mmHg 50%
    13:00 +19°C° 0.6 mm 2 mps 638 mmHg 53%
    14:00 +19°C° 0.6 mm 2 mps 638 mmHg 56%
    15:00 +20°C° 0.6 mm 1 mps 638 mmHg 59%
    16:00 +19°C° 0.7 mm 1 mps 638 mmHg 66%
    17:00 +18°C° 0.7 mm 1 mps 637 mmHg 72%
    18:00 +16°C° 0.7 mm 1 mps 637 mmHg 78%
    19:00 +14°C° 0.6 mm 1 mps 637 mmHg 83%
    20:00 +12°C° 0.6 mm 1 mps 637 mmHg 88%
    21:00 +10°C° 0.6 mm 1 mps 637 mmHg 93%
    22:00 +10°C° 0.4 mm 1 mps 637 mmHg 94%
    23:00 +9°C° 0.4 mm 1 mps 637 mmHg 96%

    30 May, Tuesday

    Time Temperature Precipitation Wind Pressure Humidity
    00:00 +9°C° 0.4 mm 1 mps 637 mmHg 97%
    01:00 +9°C° 0.1 mm 1 mps 637 mmHg 97%
    02:00 +9°C° 0.1 mm 1 mps 637 mmHg 97%
    03:00 +9°C° 0.1 mm 1 mps 637 mmHg 98%
    04:00 +10°C° 0 mm 1 mps 637 mmHg 97%
    05:00 +10°C° 0 mm 1 mps 637 mmHg 96%
    06:00 +10°C° 0 mm 1 mps 637 mmHg 95%
    07:00 +11°C° 0 mm 1 mps 638 mmHg 88%
    08:00 +13°C° 0 mm 1 mps 638 mmHg 81%
    09:00 +14°C° 0 mm 1 mps 638 mmHg 74%
    10:00 +16°C° 0 mm 2 mps 638 mmHg 67%
    11:00 +18°C° 0 mm 2 mps 638 mmHg 59%
    12:00 +19°C° 0 mm 2 mps 638 mmHg 52%
    13:00 +20°C° 0.1 mm 2 mps 638 mmHg 51%
    14:00 +20°C° 0.1 mm 2 mps 638 mmHg 51%
    15:00 +21°C° 0.1 mm 2 mps 638 mmHg 51%
    16:00 +20°C° 0.2 mm 2 mps 638 mmHg 56%
    17:00 +20°C° 0.2 mm 1 mps 637 mmHg 62%
    18:00 +19°C° 0.2 mm 1 mps 637 mmHg 68%
    19:00 +15°C° 0.1 mm 1 mps 636 mmHg 77%
    20:00 +12°C° 0.1 mm 1 mps 635 mmHg 85%
    21:00 +7°C° 0.1 mm 0 mps 635 mmHg 94%
    22:00 +7°C° 0 mm 0 mps 635 mmHg 92%
    23:00 +8°C° 0 mm 1 mps 635 mmHg 91%

    31 May, Wednesday

    Time Temperature Precipitation Wind Pressure Humidity
    00:00 +8°C° 0 mm 1 mps 635 mmHg 90%
    01:00 +8°C° 0 mm 1 mps 634 mmHg 90%
    02:00 +8°C° 0 mm 1 mps 634 mmHg 90%
    03:00 +7°C° 0 mm 1 mps 634 mmHg 89%
    04:00 +9°C° 0 mm 1 mps 634 mmHg 86%
    05:00 +11°C° 0 mm 1 mps 635 mmHg 82%
    06:00 +13°C° 0 mm 1 mps 635 mmHg 78%
    07:00 +15°C° 0 mm 1 mps 636 mmHg 68%
    08:00 +19°C° 0 mm 1 mps 636 mmHg 58%
    09:00 +21°C° 0 mm 1 mps 637 mmHg 47%
    10:00 +21°C° 0.1 mm 2 mps 637 mmHg 45%
    11:00 +23°C° 0.1 mm 2 mps 637 mmHg 44%
    12:00 +24°C° 0.1 mm 2 mps 636 mmHg 42%
    13:00 +24°C° 0.4 mm 2 mps 636 mmHg 44%
    14:00 +24°C° 0.4 mm 2 mps 636 mmHg 46%
    15:00 +24°C° 0.4 mm 2 mps 635 mmHg 48%
    16:00 +23°C° 0.7 mm 2 mps 635 mmHg 56%
    17:00 +22°C° 0.7 mm 1 mps 634 mmHg 65%
    18:00 +20°C° 0.7 mm 1 mps 634 mmHg 73%
    19:00 +18°C° 0.8 mm 1 mps 633 mmHg 79%
    20:00 +15°C° 0.8 mm 1 mps 632 mmHg 85%
    21:00 +13°C° 0.8 mm 1 mps 631 mmHg 91%
    22:00 +12°C° 0.9 mm 1 mps 631 mmHg 92%
    23:00 +11°C° 0.9 mm 1 mps 631 mmHg 94%
    Show more